(196133) = 2002 TO238

Discovered at Socorro on 2002-10-07 by LINEAR.

Orbit

Orbit type: Main Belt

Note: WebGL enabled browser required.

epoch2023-02-25.0
epoch JD2460000.5
perihelion date2018-08-14.48515
perihelion JD2458344.98515
argument of perihelion (°)276.01024
ascending node (°)31.06157
inclination (°)12.73367
eccentricity0.0830140
perihelion distance (AU)2.9122003
Tisserand w.r.t. Jupiter3.2
ΔV w.r.t. Earth (km/sec)11.3
semimajor axis (AU)3.1758395
mean anomaly (°)288.30296
mean daily motion (°/day)0.17414700
aphelion distance (AU)3.439
period (years)5.66
P-vector [x]0.59019534
P-vector [y]-0.62562184
P-vector [z]-0.51016348
Q-vector [x]0.79920933
Q-vector [y]0.54186805
Q-vector [z]0.26008357
absolute magnitude15.22
phase slope0.15
uncertainty0
referenceMPO 745323
observations used458
oppositions18
arc length (days)8479
first opposition used2000
last opposition used2023
residual rms (arc-secs)0.78
perturbers coarse indicatorM-v
perturbers precise indicator003Ek
first observation date used2000-04-03.0
last observation date used2023-06-21.0
computer nameMPCLINUX
JD of orbit computation2456700.303688
perihelion JD uncertainty (days)4.2189E-04
argument of perihelion uncertainty (°)7.9618E-05
ascending node uncertainty (°)3.0186E-05
inclination uncertainty (°)1.2707E-05
eccentricity uncertainty 6.3998E-08
perihelion distance uncertainty (AU)2.0526E-07
Minimum Orbit Intersection Distances (in AU)
for orbit epoch: 2460000.5, reference: E2023-M85
Mercury2.47376
Venus2.19851
Earth1.93386
Mars1.53656
Jupiter1.81443
Saturn5.79097
Uranus15.1068
Neptune26.6905

Observations

474 total observations over interval: 2000 04 03.40285 – 2023 06 21.348361
These data are available for download (format description).

Date (UT) J2000 RA J2000 Dec Magn Location Ref
2000 04 03.40285 14 05 25.34 -11 16 45.4 20.1 V 691 – Steward Observatory, Kitt Peak-Spacewatch MPS 133102
2000 04 03.42476 14 05 24.35 -11 16 44.5 20.1 V 691 – Steward Observatory, Kitt Peak-Spacewatch MPS 133102
2000 04 03.44624 14 05 23.36 -11 16 43.6 20.3 V 691 – Steward Observatory, Kitt Peak-Spacewatch MPS 133102
2002 10 03.26277 02 16 39.61 +12 30 47.0 19.7   704 – Lincoln Laboratory ETS, New Mexico MPS 83037
2002 10 03.29381 02 16 38.23 +12 30 47.8 20.2   704 – Lincoln Laboratory ETS, New Mexico MPS 83037
2002 10 03.32505 02 16 36.88 +12 30 47.5 19.9   704 – Lincoln Laboratory ETS, New Mexico MPS 83037
2002 10 07.34467 02 13 39.33 +12 29 35.4 19.6   704 – Lincoln Laboratory ETS, New Mexico MPS 64203
2002 10 07.36052 02 13 38.48 +12 29 35.6 19.8   704 – Lincoln Laboratory ETS, New Mexico MPS 64203
2002 10 07.37604 02 13 37.78 +12 29 35.4 19.9   704 – Lincoln Laboratory ETS, New Mexico MPS 64203
2002 10 07.39162 02 13 37.00 +12 29 33.9 19.3   704 – Lincoln Laboratory ETS, New Mexico MPS 64203
2002 10 10.33544 02 11 18.43 +12 28 01.9 19.5   704 – Lincoln Laboratory ETS, New Mexico MPS 64203
2002 10 10.35120 02 11 17.61 +12 28 01.7 19.8   704 – Lincoln Laboratory ETS, New Mexico MPS 64203
2002 10 10.36708 02 11 16.78 +12 28 00.5 20.0   704 – Lincoln Laboratory ETS, New Mexico MPS 64203
2002 10 10.38291 02 11 16.03 +12 28 00.1 19.9   704 – Lincoln Laboratory ETS, New Mexico MPS 64203
2002 10 11.26989 02 10 33.14 +12 27 26.8 19.9   704 – Lincoln Laboratory ETS, New Mexico MPS 68094
2002 10 11.28561 02 10 32.32 +12 27 26.0 19.9   704 – Lincoln Laboratory ETS, New Mexico MPS 68094
2002 10 11.31739 02 10 30.78 +12 27 26.0 19.4   704 – Lincoln Laboratory ETS, New Mexico MPS 68094
2002 10 11.31944 02 10 30.62 +12 27 26.8 19.0   704 – Lincoln Laboratory ETS, New Mexico MPS 68094
2002 10 11.33522 02 10 29.86 +12 27 25.3 19.5   704 – Lincoln Laboratory ETS, New Mexico MPS 68094
2002 10 11.35119 02 10 29.07 +12 27 24.7 20.0   704 – Lincoln Laboratory ETS, New Mexico MPS 68094
2002 10 11.36709 02 10 28.27 +12 27 24.2 19.9   704 – Lincoln Laboratory ETS, New Mexico MPS 68094
2002 10 30.23377 01 54 06.38 +12 09 13.1 19.6   644 – Palomar Mountain/NEAT MPS 66190
2002 10 30.25593 01 54 05.14 +12 09 12.1 19.6   644 – Palomar Mountain/NEAT MPS 66190
2002 10 30.27723 01 54 04.03 +12 09 10.2 19.5   644 – Palomar Mountain/NEAT MPS 66190
2002 10 31.49130 01 53 00.71 +12 07 49.4 20.3   608 – Haleakala-AMOS MPS 66190
2002 10 31.50197 01 53 00.14 +12 07 48.2 20.2   608 – Haleakala-AMOS MPS 66190
2002 10 31.51251 01 52 59.55 +12 07 47.8 21.3   608 – Haleakala-AMOS MPS 66190
2002 11 22.20253 01 37 04.81 +11 52 00.2 20.1   644 – Palomar Mountain/NEAT MPS 68094
2002 11 22.22366 01 37 04.11 +11 52 00.1 20.0   644 – Palomar Mountain/NEAT MPS 68094
2002 11 22.24461 01 37 03.36 +11 52 00.1 20.1   644 – Palomar Mountain/NEAT MPS 68094
2003 12 30.26909 06 57 28.69 +39 28 11.9 20.5   704 – Lincoln Laboratory ETS, New Mexico MPS 133102
2003 12 30.28123 06 57 27.96 +39 28 13.4 20.4   704 – Lincoln Laboratory ETS, New Mexico MPS 133102
2003 12 30.30554 06 57 26.39 +39 28 16.5 20.1   704 – Lincoln Laboratory ETS, New Mexico MPS 133102
2005 03 11.22831 11 22 00.87 +18 04 25.4 20.1 R 703 – Catalina Sky Survey MPS 133102
2005 03 11.23382 11 22 00.67 +18 04 26.0 19.4 R 703 – Catalina Sky Survey MPS 133102
2005 03 11.23934 11 22 00.37 +18 04 26.4 19.1 R 703 – Catalina Sky Survey MPS 133102
2005 03 11.24487 11 22 00.04 +18 04 27.9 19.4 R 703 – Catalina Sky Survey MPS 133102
2006 05 25.13594 15 30 55.83 -28 25 53.5 19.1 R 735 – George Observatory, Needville MPS 171983
2006 05 25.14733 15 30 55.22 -28 25 54.0 19.7 R 735 – George Observatory, Needville MPS 171983
2006 05 25.17831 15 30 53.44 -28 25 53.6 19.5 R 735 – George Observatory, Needville MPS 171983
2006 05 25.18861 15 30 52.83 -28 25 53.8 19.2 R 735 – George Observatory, Needville MPS 171983
2006 05 26.62101 15 29 32.64 -28 25 46.7 18.9 V E12 – Siding Spring Survey MPS 172803
2006 05 26.62918 15 29 32.17 -28 25 45.7 19.3 V E12 – Siding Spring Survey MPS 172803
2006 05 26.63734 15 29 31.70 -28 25 45.7 19.6 V E12 – Siding Spring Survey MPS 172803
2007 08 13.60721 23 05 18.81 -23 46 38.2 19.4 V E12 – Siding Spring Survey MPS 213080
2007 08 13.61576 23 05 18.45 -23 46 40.4 19.8 V E12 – Siding Spring Survey MPS 213080
2007 08 13.62448 23 05 18.09 -23 46 43.2 19.5 V E12 – Siding Spring Survey MPS 213080
2007 08 13.63270 23 05 17.70 -23 46 43.9 19.6 V E12 – Siding Spring Survey MPS 213080
2007 09 08.55947 22 43 47.31 -24 54 32.7 20.0 V E12 – Siding Spring Survey MPS 215059
2007 09 08.56597 22 43 46.99 -24 54 33.6 19.0 V E12 – Siding Spring Survey MPS 215059
2007 09 08.57256 22 43 46.56 -24 54 34.3 19.7 V E12 – Siding Spring Survey MPS 215059
2007 09 08.57898 22 43 46.20 -24 54 34.0 19.6 V E12 – Siding Spring Survey MPS 215059
2008 10 21.32386 03 54 36.80 +26 46 12.5 20.0 V 691 – Steward Observatory, Kitt Peak-Spacewatch MPS 260539
2008 10 21.34153 03 54 36.10 +26 46 14.9 20.3 V 691 – Steward Observatory, Kitt Peak-Spacewatch MPS 260539
2008 10 21.35920 03 54 35.36 +26 46 17.0 20.1 V 691 – Steward Observatory, Kitt Peak-Spacewatch MPS 260539
2008 10 22.31671 03 53 57.62 +26 48 25.2 20.0 V 691 – Steward Observatory, Kitt Peak-Spacewatch MPS 260539
2008 10 22.33439 03 53 56.87 +26 48 27.8 20.2 V 691 – Steward Observatory, Kitt Peak-Spacewatch MPS 260539
2008 10 22.35206 03 53 56.13 +26 48 30.1 20.3 V 691 – Steward Observatory, Kitt Peak-Spacewatch MPS 260539
2008 10 30.28001 03 48 02.47 +27 03 01.9 20.1 V 691 – Steward Observatory, Kitt Peak-Spacewatch MPS 261393
2008 10 30.29772 03 48 01.59 +27 03 03.3 19.9 V 691 – Steward Observatory, Kitt Peak-Spacewatch MPS 261393
2008 10 30.31544 03 48 00.69 +27 03 05.5 21.1 V 691 – Steward Observatory, Kitt Peak-Spacewatch MPS 261393
2008 11 01.25943 03 46 24.16 +27 05 44.2 20.0 V 703 – Catalina Sky Survey MPS 263105
2008 11 01.26810 03 46 23.77 +27 05 45.6 20.1 V 703 – Catalina Sky Survey MPS 263106
2008 11 01.27671 03 46 23.30 +27 05 45.7 19.9 V 703 – Catalina Sky Survey MPS 263106
2008 11 01.28531 03 46 22.94 +27 05 46.0 21.1 V 703 – Catalina Sky Survey MPS 263106
2008 11 02.30951 03 45 30.62 +27 07 02.5 19.9   704 – Lincoln Laboratory ETS, New Mexico MPS 263106
2008 11 02.32125 03 45 29.96 +27 07 04.0 20.1   704 – Lincoln Laboratory ETS, New Mexico MPS 263106
2008 11 02.33304 03 45 29.29 +27 07 03.8 20.3   704 – Lincoln Laboratory ETS, New Mexico MPS 263106
2008 11 02.35657 03 45 28.04 +27 07 06.0 20.0   704 – Lincoln Laboratory ETS, New Mexico MPS 263106
2008 11 21.33402 03 27 50.97 +27 11 50.6 19.6   704 – Lincoln Laboratory ETS, New Mexico MPS 267326
2008 11 21.34699 03 27 50.25 +27 11 49.7 20.1   704 – Lincoln Laboratory ETS, New Mexico MPS 267326
2008 11 21.35948 03 27 49.58 +27 11 49.6 19.7   704 – Lincoln Laboratory ETS, New Mexico MPS 267326
2008 11 21.37207 03 27 48.76 +27 11 49.1 19.9   704 – Lincoln Laboratory ETS, New Mexico MPS 267326
2009 11 24.42595 09 07 42.11 +31 54 32.6 20.9 V 291 – LPL/Spacewatch II MPS 306508
2009 11 24.43796 09 07 42.26 +31 54 35.3 21.0 V 291 – LPL/Spacewatch II MPS 306508
2009 11 24.44995 09 07 42.43 +31 54 37.8 20.8 V 291 – LPL/Spacewatch II MPS 306508
2010 02 14.24941 08 21 46.94 +37 04 32.7 21.1 V 703 – Catalina Sky Survey MPS 316416
2010 02 14.25729 08 21 46.51 +37 04 33.8 20.6 V 703 – Catalina Sky Survey MPS 316416
2010 02 14.26520 08 21 46.26 +37 04 32.7 21.4 V 703 – Catalina Sky Survey MPS 316416
2010 02 14.27312 08 21 45.86 +37 04 33.6 20.0 V 703 – Catalina Sky Survey MPS 316416
2011 02 22.46946 13 06 32.86 +01 34 42.7 20.3 V 691 – Steward Observatory, Kitt Peak-Spacewatch MPS 371862
2011 02 22.48718 13 06 32.46 +01 34 44.2 20.5 V 691 – Steward Observatory, Kitt Peak-Spacewatch MPS 371862
2011 02 22.50491 13 06 32.06 +01 34 46.0 20.6 V 691 – Steward Observatory, Kitt Peak-Spacewatch MPS 371862
2011 03 02.34426 13 03 13.04 +01 49 12.6 20.5 V 691 – Steward Observatory, Kitt Peak-Spacewatch MPS 373217
2011 03 02.36250 13 03 12.47 +01 49 15.1 20.4 V 691 – Steward Observatory, Kitt Peak-Spacewatch MPS 373217
2011 03 02.38022 13 03 11.93 +01 49 17.0 20.2 V 691 – Steward Observatory, Kitt Peak-Spacewatch MPS 373217
